Location: Brienzwiler
(46.7508°N, 8.1014°E)
Time: 16:48:22
(UTC+00:00)

Gbstr 26 Del rocket - Pass Details

Date: 05 July 2020
Orbit: 492 x 1264 km, 51.8° (Epoch: 10 August)

Event Time Altitude Azimuth Distance (km) Brightness Sun altitude
Exits shadow 22:49:26 20° 95° (E) 1,274 4.5 -19.9°
Drops below altitude 10° 22:51:05 10° 78° (ENE) 1,817 5.5 -20.0°
Sets 22:53:40 0° 67° (ENE) 2,806 6.6 -20.0°
